Weather History for Praha / Ruzyne, Czech Republic

Change the Weather History Date:

Wednesday, August 28, 2013

  Actual Average Record
Temperature  
Mean Temperature 59 °F -  
Max Temperature 65 °F 66 °F - ()
Min Temperature 53 °F 47 °F - ()
Degree Days  
Heating Degree Days 6    
Growing Degree Days 9 (Base 50)    
Moisture  
Dew Point 53 °F    
Average Humidity 79    
Maximum Humidity 100    
Minimum Humidity 51    
Precipitation  
Precipitation 0.08 in 0.06 in - ()
Sea Level Pressure  
Sea Level Pressure 30.01 in    
Wind  
Wind Speed 5 mph ()    
Max Wind Speed 10 mph    
Max Gust Speed -    
Visibility 5.9 miles    
Events Rain    
T = Trace of Precipitation, MM = Missing Value Source: Averaged Metar Reports

Daily Weather History Graph

Daily Weather History Graph

Search for Another Location

Airport:

Trip Planner

Search our weather history database for the weather conditions in past years. The results will help you decide how hot, cold, wet, or windy it might be!

Date:

Astronomy

Aug. 28, 2013 Rise Set
Actual Time 6:11 AM CEST 7:55 PM CEST
Civil Twilight 5:37 AM CEST 8:29 PM CEST
Nautical Twilight 4:55 AM CEST 9:11 PM CEST
Astronomical Twilight 4:08 AM CEST 9:57 PM CEST
Moon 11:34 PM CEST (8/28) 2:34 PM CEST (8/28)
Length of Visible Light 14h 51m
Length of Day
13h 43m
Waning Gibbous, 50% of the Moon is Illuminated
Aug 28
Waning Gibbous
Sep 5
New
Sep 12
First Quarter
Sep 19
Full
Sep 27
Last Quarter

Hourly Weather History & Observations

Time (CEST) Temp. Dew Point Humidity Pressure Visibility Wind Dir Wind Speed Gust Speed Precip Events Conditions
12:00 AM 55 °F 53 °F 89% 29.99 in 5 mi ENE 3.5 mph - - Rain Light Rain
12:00 AM 55.4 °F 51.8 °F 88% 29.98 in 5.0 mi NE 5.8 mph - N/A Rain Light Rain
12:30 AM 55.4 °F 51.8 °F 88% 29.98 in 5.6 mi NE 5.8 mph - N/A Rain Light Rain
1:00 AM 54 °F 53 °F 93% 29.99 in 4 mi ENE 4.5 mph - - Rain Light Rain
1:00 AM 55.4 °F 51.8 °F 88% 29.98 in 4.3 mi NE 4.6 mph - N/A Rain Light Rain
1:30 AM 55.4 °F 51.8 °F 88% 29.98 in 3.7 mi ENE 4.6 mph - N/A Rain Light Rain
2:00 AM 54 °F 52 °F 91% 29.98 in 4 mi NE 4.5 mph - - Rain Light Rain
2:00 AM 55.4 °F 51.8 °F 88% 29.98 in 3.7 mi ENE 2.3 mph - N/A Rain Light Rain
2:30 AM 53.6 °F 51.8 °F 94% 29.98 in 5.6 mi North 2.3 mph - N/A Rain Light Rain
3:00 AM 54 °F 52 °F 92% 29.97 in 4 mi NW 4.5 mph - - Rain Light Rain
3:00 AM 53.6 °F 51.8 °F 94% 29.98 in 4.3 mi NW 2.3 mph - N/A Rain Light Rain
3:30 AM 53.6 °F 51.8 °F 94% 29.95 in 3.7 mi WNW 3.5 mph - N/A Rain Light Rain
4:00 AM 54 °F 53 °F 93% 29.97 in 4 mi WNW 1.2 mph - - Rain Light Rain
4:00 AM 53.6 °F 51.8 °F 94% 29.95 in 4.3 mi WNW 3.5 mph - N/A Rain Light Rain
4:30 AM 53.6 °F 53.6 °F 100% 29.95 in 4.3 mi WNW 3.5 mph - N/A   Overcast
5:00 AM 53.6 °F 53.6 °F 100% 29.95 in 5.6 mi Variable 1.2 mph - N/A Rain Light Rain
5:30 AM 53.6 °F 51.8 °F 94% 29.95 in 5.6 mi WNW 2.3 mph - N/A Rain Light Rain
6:00 AM 55 °F 53 °F 89% 29.96 in 4 mi WNW 4.5 mph - - Rain Light Rain
6:00 AM 55.4 °F 53.6 °F 94% 29.95 in 4.3 mi NW 5.8 mph - N/A Rain Light Rain
6:30 AM 55.4 °F 53.6 °F 94% 29.98 in 4.3 mi NNW 5.8 mph - N/A   Mostly Cloudy
7:00 AM 55.4 °F 53.6 °F 94% 29.98 in 5.0 mi NW 5.8 mph - N/A   Mostly Cloudy
7:30 AM 55.4 °F 53.6 °F 94% 29.98 in 5.6 mi WNW 5.8 mph - N/A   Scattered Clouds
8:00 AM 57.2 °F 53.6 °F 88% 29.98 in 6.2 mi NNW 5.8 mph - N/A   Partly Cloudy
8:30 AM 57.2 °F 53.6 °F 88% 29.98 in 6.2 mi North 5.8 mph - N/A   Mostly Cloudy
9:00 AM 57 °F 53 °F 82% 29.99 in 7 mi North 6.7 mph - -   Mostly Cloudy
9:00 AM 57.2 °F 53.6 °F 88% 29.98 in 6.2 mi NNW 5.8 mph - N/A   Mostly Cloudy
9:30 AM 57.2 °F 53.6 °F 88% 29.98 in 6.2 mi NNW 8.1 mph - N/A   Mostly Cloudy
10:00 AM 58 °F 53 °F 78% 30.00 in 9 mi NNW 6.7 mph - -   Mostly Cloudy
10:00 AM 59.0 °F 53.6 °F 82% 30.01 in - NNW 6.9 mph - N/A   Clear
10:30 AM 59.0 °F 53.6 °F 82% 30.01 in - NNW 8.1 mph - N/A   Clear
11:00 AM 60 °F 54 °F 76% 30.00 in 14 mi NNW 3.5 mph - -   Partly Cloudy
11:00 AM 60.8 °F 55.4 °F 82% 30.01 in 6.2 mi NNW 6.9 mph - N/A   Partly Cloudy
11:30 AM 62.6 °F 53.6 °F 72% 30.01 in 6.2 mi NNW 9.2 mph - N/A   Partly Cloudy
12:00 PM 64 °F 53 °F 57% 30.00 in 19 mi NNW 8.9 mph - -   Partly Cloudy
12:00 PM 62.6 °F 53.6 °F 72% 30.01 in 6.2 mi NNW 8.1 mph - N/A   Partly Cloudy
12:30 PM 64.4 °F 51.8 °F 64% 30.01 in 6.2 mi North 9.2 mph - N/A   Scattered Clouds
1:00 PM 64 °F 53 °F 60% 29.99 in 22 mi NNE 4.6 mph - -   Mostly Cloudy
1:00 PM 64.4 °F 53.6 °F 68% 30.01 in 6.2 mi North 5.8 mph - N/A   Mostly Cloudy
1:30 PM 64.4 °F 53.6 °F 68% 30.01 in 6.2 mi North 9.2 mph - N/A   Mostly Cloudy
2:00 PM 64 °F 53 °F 58% 30.00 in 25 mi NNE 8.9 mph - -   Overcast
2:00 PM 64.4 °F 53.6 °F 68% 30.01 in 6.2 mi NNE 9.2 mph - N/A   Mostly Cloudy
2:30 PM 64.4 °F 53.6 °F 68% 30.04 in 6.2 mi North 8.1 mph - N/A   Mostly Cloudy
3:00 PM 65 °F 54 °F 58% 30.00 in 28 mi North 8.9 mph - -   Overcast
3:00 PM 64.4 °F 53.6 °F 68% 30.04 in 6.2 mi North 9.2 mph - N/A   Scattered Clouds
3:30 PM 64.4 °F 51.8 °F 64% 30.04 in 6.2 mi North 10.4 mph - N/A   Partly Cloudy
4:00 PM 64.4 °F 51.8 °F 64% 30.04 in 6.2 mi North 9.2 mph - N/A   Partly Cloudy
4:30 PM 64.4 °F 53.6 °F 68% 30.04 in 6.2 mi North 6.9 mph - N/A   Partly Cloudy
5:00 PM 64.4 °F 53.6 °F 68% 30.04 in 6.2 mi North 8.1 mph - N/A   Partly Cloudy
5:30 PM 64.4 °F 53.6 °F 68% 30.04 in 6.2 mi NNE 6.9 mph - N/A   Partly Cloudy
6:00 PM 64 °F 50 °F 51% 30.03 in 40 mi NNE 3.5 mph - -   Scattered Clouds
6:00 PM 64.4 °F 51.8 °F 64% 30.04 in 6.2 mi North 5.8 mph - N/A   Partly Cloudy
6:30 PM 64.4 °F 50.0 °F 59% 30.06 in - NNE 4.6 mph - N/A   Clear
7:00 PM 64 °F 52 °F 57% 30.05 in 40 mi NNW 2.3 mph - -   Scattered Clouds
7:00 PM 64.4 °F 51.8 °F 64% 30.06 in - North 5.8 mph - N/A   Clear
7:30 PM 62.6 °F 51.8 °F 68% 30.06 in - NNW 5.8 mph - N/A   Clear
8:00 PM 62 °F 52 °F 61% 30.06 in 37 mi NW 4.5 mph - -   Mostly Cloudy
8:00 PM 60.8 °F 53.6 °F 77% 30.06 in - NNW 5.8 mph - N/A   Clear
8:30 PM 60.8 °F 53.6 °F 77% 30.09 in - NW 6.9 mph - N/A   Clear
9:00 PM 60 °F 54 °F 74% 30.09 in 31 mi NW 2.3 mph - -   Mostly Cloudy
9:00 PM 59.0 °F 53.6 °F 82% 30.09 in - NW 6.9 mph - N/A   Clear
9:30 PM 59.0 °F 53.6 °F 82% 30.09 in - NNW 8.1 mph - N/A   Clear
10:00 PM 57.2 °F 51.8 °F 82% 30.12 in - NW 6.9 mph - N/A   Clear
10:30 PM 57.2 °F 51.8 °F 82% 30.09 in - NW 6.9 mph - N/A   Clear
11:00 PM 57.2 °F 51.8 °F 82% 30.12 in - NW 6.9 mph - N/A   Clear
11:30 PM 55.4 °F 50.0 °F 82% 30.12 in - West 5.8 mph - N/A   Clear